FENGYUN 1C DEB

Satellite information

Favourite Embed

Satellite Type and Status

DEBRISIN ORBIT

Key statistics

Satellite FENGYUN 1C DEB at a glance.

Uptime

9495

Days in orbit

Revolutions

≈ 14.1

Per day

Orbit

SSO

Sun Synchronous Orbit

Inclination

99.0

Latest

Satellite identification and parameters

Extended collection of information and parameters for FENGYUN 1C DEB.

Object identification

Identified? True

Debris? True

Object name: FENGYUN 1C DEB

International designator: 1999-025BMR

Object number (NORAD): 31259

Object ID (CCSDS): 31259

Country: PEOPLES REPUBLIC OF CHINA (PRC)

Current information (Y/N): Y

RCS size: SMALL

Orbital parameters

Period: 101.872 minutes

Inclination: 99.0146 deg

SMA: 7225.435 km

Apoapsis: 895.939 km

Periapsis: 798.662 km

RAAN: 205.1596 deg

Eccentricy: 0.0067316

Argument of periapsis: 97.0758 deg

Mean anomaly: 331.5117 deg

Mean motion: 14.1353551 rev/day

Mean motion (dot): 0.00003426 rev/day2

B* drag term: 0.0018029 1/REarth

Two-line elements (TLE)

Creation date: May 7, 2025, 10:36 p.m.

Reference frame: TEME

Reference center: EARTH

Epoch: May 7, 2025, 8:58 p.m. UTC

TLE line 0: 0 FENGYUN 1C DEB

TLE line 1: 1 31259U 99025BMR 25127.87403333 .00003426 00000-0 18029-2 0 9990

TLE line 2: 2 31259 99.0146 205.1596 0067316 97.0758 331.5117 14.13535510924888

Live tracking on map

Real-time ground track for satellite FENGYUN 1C DEB.

In-orbit conjunctions

A list of the most updated potential collisions computed for object FENGYUN 1C DEB.

Target Orbit TCA Probability of collision Miss distance Type
CZ-6A DEB LEO 2024-12-30 06:24:05 0.0001427075 294.0 (m) DEBRIS
CZ-6A DEB LEO 2024-11-20 18:06:41 0.0002436303 713.0 (m) DEBRIS
NOAA 16 DEB SSO 2024-11-08 07:34:07 0.0003147193 360.0 (m) DEBRIS

Associated space launch

Chinese polar orbiting meteorological satellite

FENGYUN 1C DEB was lifted into orbit during the mission ‘Long March 4B | Feng Yun 1C’, on board a Long March 4B space rocket.

The launch took place on May 10, 1999, 1:33 a.m. from Launch Complex 7.

For more information about the launch, click the button.

Launch to space Long March 4B | Feng Yun 1C
Long March 4B | Feng Yun 1C

Agency: N/A

Status: Launch Successful

Launch date: May 10, 1999, 1:33 a.m. UTC

Rocket: Long March 4B

Launch pad: Launch Complex 7

Location: Taiyuan Satellite Launch Center, People's Republic of China

...

Latest news about this satellite

There are no fresh news available about this satellite. Check back as we update our databases every day.


Newsletter sign-up

Weekly statistics, charts and insights to help you stay on top of the space industry.